[[{"header":{"parameterUnit":"m.s-1","parameterCategory":2,"la1":30.2991,"la2":30.254,"lo1":-89.0895,"lo2":-89.0444,"dy":0.0017,"dx":0.0017,"nx":28,"ny":28,"refTime":"2024-07-07T09:00:00:Z","depth":"0","parameterNumber":2,"parameterNumberName":"U-component_of_CURRENTS"},"data":[0,0,0,0,0,0,0,0,0,0,0,0,0,0,0,0,0,0,0,0,0,0,0,0,0,0,0,0,0,0,0,0,0,0,0,0,0,0,0,0,0,0,0,0,0,0,0,0,0,0,0,0,0,0,0,0,0,0,0.2371,0.2372,0,0.24,0.24,0.24,0.2408,0.2408,0.2409,0.2409,0.241,0.2409,0.2409,0,0,0,0,0,0,0,0,0,0,0,0,0,0.2305,0.2306,0.2371,0.2372,0.2373,0.24,0.24,0.24,0.2408,0.2408,0.2409,0.2409,0.241,0.2409,0.2409,0,0,0,0,0,0,0,0,0,0,0,0,0,0.2329,0.2306,0.2371,0.2383,0.2385,0.24,0.24,0.24,0.2408,0.2408,0.2409,0.2409,0.241,0.2409,0.2409,0.2399,0,0,0.2408,0.2408,0,0,0,0,0,0,0,0,0.2328,0.2331,0.2381,0.2383,0.2385,0.2405,0.2378,0.24,0.2408,0.2394,0.2409,0.2409,0.2408,0.2408,0.2406,0.2399,0.2399,0.2408,0.2408,0.2408,0.2407,0,0,0,0,0,0,0,0.2326,0.233,0.2378,0.2382,0.2384,0.2382,0.2386,0.2382,0.2394,0.2395,0.2397,0.2408,0.2409,0.2407,0.2406,0.2399,0.2408,0.2408,0.2407,0.2407,0.2428,0.2429,0,0,0,0,0,0,0.2333,0.2328,0.2377,0.2379,0.2362,0.2384,0.2387,0.2394,0.2395,0.2397,0.2408,0.2408,0.2407,0.2407,0.2406,0.2453,0.2408,0.2407,0.2407,0.2427,0.2428,0.2429,0,0,0,0,0,0,0.2331,0.2337,0.2376,0.2358,0.2364,0.2385,0.2392,0.2395,0.2398,0.2406,0.2406,0.2409,0.2407,0.2407,0.2406,0.2451,0.2407,0.2407,0.2426,0.2427,0.2428,0.2509,0,0,0,0,0,0,0.2329,0.2336,0.2339,0.2359,0.2365,0.2387,0.2393,0.2395,0.2406,0.2407,0.2407,0.2407,0.2408,0.2407,0.2406,0.245,0.2407,0.2425,0.2427,0.2428,0.2505,0.2512,0.2519,0,0,0,0,0,0.2326,0.2332,0.2338,0.2344,0.237,0.2387,0.239,0.2403,0.2406,0.2406,0.2407,0.2408,0.2416,0.2406,0.2405,0.245,0.2425,0.2426,0.2428,0.2502,0.2511,0.2518,0,0,0,0,0,0,0.231,0.2335,0.2342,0.2356,0.2372,0.2391,0.2394,0.2403,0.2403,0.2405,0.2406,0.2406,0.2431,0.2415,0.2405,0.2458,0.2425,0.2427,0.2482,0.249,0.2497,0.2558,0.2406,0,0,0,0,0,0.2307,0.2316,0.234,0.2352,0.2358,0.2375,0.2382,0.2394,0.2403,0.2403,0.2404,0.241,0.2436,0.244,0.2447,0.2462,0.251,0.2492,0.2498,0.2504,0.2553,0.2658,0.2681,0.2434,0.2434,0.2434,0,0,0.2307,0.2321,0.2328,0.2349,0.2359,0.2381,0.2379,0.2395,0.2426,0.2403,0.2426,0.2431,0.2443,0.2475,0.2485,0.2468,0.2594,0.2507,0.2512,0.2558,0.2662,0.2687,0.2709,0.2436,0.2435,0.2435,0,0,0.2311,0.2319,0.2327,0.2345,0.2368,0.2382,0.2388,0.2405,0.2423,0.244,0.2453,0.249,0.2483,0.2533,0.2553,0.2598,0.2628,0.2582,0.2669,0.277,0.2793,0.2813,0.289,0.2917,0.2584,0.2584,0.2584,0,0.2307,0.2333,0.2332,0.2351,0.2384,0.2386,0.242,0.2434,0.2452,0.2494,0.2455,0.2535,0.2532,0.2638,0.2656,0.2624,0.2671,0.2639,0.2785,0.2806,0.2826,0.29,0.2929,0.2588,0.2588,0.2587,0.2587,0,0.2321,0.2351,0.2359,0.239,0.2415,0.2444,0.2476,0.2501,0.2515,0.2551,0.2636,0.264,0.2703,0.2702,0.2694,0.2838,0.2821,0.2785,0.2775,0.2857,0.2927,0.2956,0.2594,0.2592,0.2591,0.259,0,0,0.2301,0.236,0.2365,0.2409,0.245,0.2479,0.2534,0.2611,0.2678,0.2694,0.28,0.2849,0.2868,0.2894,0.2894,0.298,0.3142,0.2947,0.295,0.3044,0.3362,0.3303,0.3328,0.3132,0.3137,0.3142,0.335,0,0.232,0.2381,0.2405,0.2482,0.2528,0.2569,0.2628,0.2699,0.2747,0.2835,0.2899,0.2974,0.2934,0.2971,0.3059,0.3116,0.3224,0.3089,0.3252,0.3258,0.3214,0.3362,0.319,0.3358,0.3378,0.3383,0.3386,0,0.2334,0.2384,0.2463,0.2573,0.2595,0.2637,0.2765,0.2818,0.2942,0.2984,0.3085,0.3117,0.3256,0.3191,0.339,0.3302,0.3364,0.3404,0.3412,0.3363,0.3254,0.3281,0.3409,0.3289,0.343,0.3427,0.3424,0,0.235,0.2434,0.251,0.2544,0.2648,0.2706,0.2762,0.2875,0.2937,0.309,0.3153,0.3299,0.337,0.3485,0.3549,0.349,0.376,0.3676,0.3699,0.3693,0.3587,0.3563,0.3644,0.3872,0.3872,0.3871,0.3871,0,0.2383,0.245,0.2525,0.2574,0.2669,0.2735,0.2842,0.2921,0.3036,0.3127,0.3231,0.3328,0.3451,0.3585,0.364,0.3767,0.3839,0.3782,0.3774,0.3602,0.3578,0.3497,0.3474,0.3879,0.3877,0.3876,0.3874,0,0.241,0.2452,0.2547,0.2652,0.2681,0.2752,0.2851,0.2919,0.304,0.3164,0.3216,0.3389,0.3554,0.3672,0.3862,0.3875,0.3898,0.4027,0.3806,0.3769,0.363,0.3618,0.3638,0.3544,0.4095,0.4095,0.4095,0,0.2446,0.2495,0.2586,0.2611,0.2659,0.2748,0.2792,0.2906,0.2968,0.3186,0.3243,0.3452,0.3564,0.3827,0.3907,0.4043,0.3921,0.3962,0.3828,0.3666,0.3649,0.3489,0.3397,0.3713,0.371,0.3707,0.3705,0,0.2516,0.2531,0.2585,0.2624,0.2665,0.2712,0.2788,0.2834,0.2972,0.3073,0.3224,0.3342,0.36,0.3667,0.3856,0.3905,0.3754,0.3916,0.3823,0.3456,0.322,0.3107,0.3514,0.3684,0.3686,0.3688,0.3689,0.369,0.2549,0.2568,0.2593,0.2623,0.2647,0.2652,0.2655,0.2737,0.281,0.2943,0.3122,0.3252,0.3434,0.3662,0.3678,0.3607,0.364,0.3509,0.3543,0.3419,0.3232,0.3591,0.3692,0.3694,0.3696,0.3697,0.3699,0,0.2555,0.255,0.2583,0.2573,0.2542,0.2579,0.2614,0.2591,0.2619,0.2811,0.2924,0.3095,0.3172,0.3275,0.3328,0.3254,0.3077,0.3176,0.2909,0.2863,0.3254,0.3133,0.3025,0.3025,0.3025,0.3026,0.3026,0.3026,0.2553,0.254,0.2529,0.2453,0.2431,0.2351,0.2335,0.2336,0.2423,0.2518,0.2619,0.2779,0.2974,0.3086,0.2998,0.2933,0.2743,0.2637,0.2672,0.2928,0.2959,0.2987,0.2864,0.2702,0.2702,0.208,0.2076,0.2073]},{"header":{"parameterUnit":"m.s-1","parameterCategory":2,"la1":30.2991,"la2":30.254,"lo1":-89.0895,"lo2":-89.0444,"dy":0.0017,"dx":0.0017,"nx":28,"ny":28,"refTime":"2024-07-07T09:00:00:Z","depth":"0","parameterNumber":3,"parameterNumberName":"V-component_of_CURRENTS"},"data":[0,0,0,0,0,0,0,0,0,0,0,0,0,0,0,0,0,0,0,0,0,0,0,0,0,0,0,0,0,0,0,0,0,0,0,0,0,0,0,0,0,0,0,0,0,0,0,0,0,0,0,0,0,0,0,0,0,0,0.0053,0.0053,0,-0.0019,-0.002,-0.0021,-0.007,-0.007,-0.0071,-0.0071,-0.019,-0.0193,-0.0195,0,0,0,0,0,0,0,0,0,0,0,0,0,0.0069,0.0069,0.0053,0.0053,0.0052,-0.0019,-0.002,-0.0021,-0.007,-0.007,-0.0071,-0.0071,-0.0189,-0.0192,-0.0196,0,0,0,0,0,0,0,0,0,0,0,0,0,0.0035,0.007,0.0054,0.002,0.0016,-0.0018,-0.002,-0.0021,-0.007,-0.007,-0.0071,-0.0071,-0.0188,-0.0192,-0.0196,-0.0217,0,0,-0.021,-0.0212,0,0,0,0,0,0,0,0,0.0037,0.0034,0.0026,0.0022,0.0018,-0.0035,-0.0058,-0.0088,-0.007,-0.0039,-0.0071,-0.0071,-0.0141,-0.0149,-0.0163,-0.0222,-0.0227,-0.021,-0.0213,-0.0215,-0.0216,0,0,0,0,0,0,0,0.004,0.0037,0.0023,0.0025,0.002,-0.0019,-0.0024,-0.0064,-0.0089,-0.0042,-0.0045,-0.0051,-0.0144,-0.0159,-0.0167,-0.0229,-0.021,-0.0214,-0.0217,-0.0218,-0.0275,-0.0274,0,0,0,0,0,0,0.0056,0.004,0.0026,0.0021,0.0028,-0.0018,-0.0024,-0.0019,-0.0088,-0.0098,-0.005,-0.0053,-0.0151,-0.0161,-0.0171,-0.0154,-0.0215,-0.0219,-0.0221,-0.0277,-0.0275,-0.0274,0,0,0,0,0,0,0.0057,0.0056,0.0029,0.0029,0.0023,-0.0018,-0.0012,-0.002,-0.0034,-0.0094,-0.0105,-0.0056,-0.0152,-0.0165,-0.0203,-0.0161,-0.0221,-0.0225,-0.0278,-0.0276,-0.0275,-0.015,0,0,0,0,0,0,0.0058,0.0057,0.0064,0.0031,0.0024,0.0013,-0.0012,-0.0021,-0.0037,-0.0041,-0.0103,-0.0114,-0.0153,-0.0196,-0.0207,-0.0168,-0.0228,-0.0279,-0.0277,-0.0275,-0.0156,-0.0144,-0.0135,0,0,0,0,0,0.0059,0.0069,0.0066,0.0063,0.0036,0.0014,0.0006,-0.0026,-0.0036,-0.004,-0.008,-0.0112,-0.0189,-0.0199,-0.0213,-0.0174,-0.028,-0.0278,-0.0275,-0.016,-0.0147,-0.0135,0,0,0,0,0,0,0.0074,0.0065,0.0059,0.0066,0.0046,0.0006,-0.0001,-0.002,-0.0054,-0.0056,-0.0112,-0.0127,-0.0141,-0.0181,-0.019,-0.0184,-0.0234,-0.0234,-0.0142,-0.013,-0.012,-0.0062,-0.0232,0,0,0,0,0,0.0085,0.0095,0.0073,0.0078,0.0071,0.0038,0.0025,0.0008,-0.0026,-0.0041,-0.0082,-0.0119,-0.0141,-0.0155,-0.0192,-0.0197,-0.0216,-0.0177,-0.0167,-0.0157,-0.0119,-0.0129,-0.0115,-0.0265,-0.0266,-0.0266,0,0,0.0091,0.0088,0.0092,0.0082,0.0064,0.0077,0.0029,0.0018,0.0039,-0.0049,-0.0045,-0.0094,-0.0138,-0.0138,-0.0146,-0.0165,-0.0126,-0.0154,-0.0146,-0.0112,-0.0125,-0.011,-0.0097,-0.0264,-0.0264,-0.0264,0,0,0.0118,0.0109,0.0131,0.0126,0.0113,0.0098,0.0101,0.0069,0.0064,0.0053,0.0011,-0.0006,-0.0062,-0.0064,-0.0075,-0.0029,-0.0077,-0.005,0.0059,0.0049,0.0062,0.0073,0.0067,0.0077,-0.0035,-0.0035,-0.0035,0,0.0128,0.0169,0.013,0.0155,0.0176,0.0118,0.0163,0.0142,0.0104,0.0123,0.0071,0.0042,-0.001,0.0033,0.0049,0.0001,-0.002,0.0016,0.0066,0.0076,0.0085,0.0076,0.0085,-0.0029,-0.003,-0.003,-0.0031,0,0.0179,0.0217,0.0228,0.0259,0.0262,0.0287,0.027,0.027,0.0252,0.0242,0.0259,0.0189,0.0184,0.0163,0.0117,0.0173,0.013,0.0073,0.004,0.0109,0.0093,0.0101,-0.002,-0.0022,-0.0024,-0.0026,0,0,0.0216,0.0262,0.0275,0.0331,0.0335,0.0354,0.0386,0.0423,0.0466,0.0417,0.0477,0.0437,0.0397,0.0384,0.0325,0.032,0.0351,0.0235,0.0231,0.0243,0.0332,0.0304,0.0308,0.0293,0.0295,0.0296,0.0295,0,0.0289,0.0385,0.0383,0.0488,0.0549,0.0528,0.0571,0.0587,0.0575,0.0598,0.056,0.0568,0.0482,0.0477,0.0464,0.0369,0.0376,0.0358,0.0253,0.0251,0.0229,0.0318,0.0292,0.0289,0.0301,0.0302,0.0303,0,0.0372,0.0432,0.0554,0.0656,0.0678,0.072,0.0805,0.0831,0.0837,0.0825,0.0826,0.0762,0.0764,0.0658,0.0591,0.0576,0.0486,0.041,0.0406,0.0351,0.0238,0.0221,0.0301,0.0117,0.0314,0.0313,0.0312,0,0.0474,0.0572,0.069,0.072,0.0795,0.0855,0.0891,0.0914,0.0955,0.0968,0.0987,0.0953,0.0936,0.0833,0.067,0.0629,0.0575,0.0489,0.0397,0.0392,0.034,0.0329,0.0248,0.047,0.047,0.047,0.047,0,0.0593,0.0692,0.0748,0.0817,0.0944,0.0963,0.1077,0.1093,0.1125,0.1192,0.1114,0.1156,0.0975,0.0903,0.0745,0.0608,0.0637,0.0458,0.0407,0.0381,0.0373,0.0184,0.0078,0.047,0.047,0.047,0.047,0,0.071,0.075,0.088,0.097,0.1002,0.1091,0.1177,0.124,0.1267,0.1347,0.1359,0.1315,0.1224,0.1038,0.0864,0.0717,0.0466,0.0515,0.0501,0.045,0.0184,0.0087,-0.0003,-0.0103,0.0427,0.0426,0.0426,0,0.0788,0.0868,0.0976,0.103,0.1078,0.1189,0.1252,0.1303,0.1364,0.1456,0.1502,0.1455,0.144,0.1189,0.0898,0.0648,0.0461,0.0466,0.0392,0.021,0.0063,0.0002,-0.0081,0.0365,0.0364,0.0363,0.0362,0,0.0922,0.0948,0.1028,0.1129,0.1211,0.1309,0.1408,0.1483,0.1554,0.1632,0.1733,0.1745,0.1515,0.1267,0.0915,0.0712,0.0325,0.0445,0.0258,0.0038,-0.0034,-0.017,0.0319,0.0356,0.0357,0.0357,0.0358,0.0358,0.0994,0.1054,0.1128,0.1225,0.1306,0.1416,0.1503,0.1612,0.1741,0.1885,0.1905,0.198,0.1591,0.1111,0.0815,0.0254,0.0276,0.0095,0.0003,-0.0033,-0.0152,0.034,0.0311,0.0311,0.0311,0.0312,0.0312,0,0.1067,0.1119,0.1213,0.1315,0.1392,0.1434,0.1584,0.1675,0.1832,0.2018,0.2119,0.2,0.1511,0.0999,0.0254,-0.0105,-0.0267,-0.0315,-0.0426,-0.0485,-0.0048,-0.0076,-0.0192,-0.0192,-0.0191,-0.0191,-0.0191,-0.0191,0.1106,0.1191,0.123,0.1359,0.1424,0.1532,0.1618,0.1776,0.1934,0.2153,0.2251,0.2326,0.1887,0.0552,-0.0325,-0.0543,-0.082,-0.0847,-0.0978,-0.0714,-0.0684,-0.0655,-0.0706,-0.0952,-0.0953,-0.1389,-0.1393,-0.1397]}],[{"header":{"parameterUnit":"m.s-1","parameterCategory":2,"la1":30.2991,"la2":30.254,"lo1":-89.0895,"lo2":-89.0444,"dy":0.0017,"dx":0.0017,"nx":28,"ny":28,"refTime":"2024-07-07T09:00:00:Z","depth":"2","parameterNumber":2,"parameterNumberName":"U-component_of_CURRENTS"},"data":[0,0,0,0,0,0,0,0,0,0,0,0,0,0,0,0,0,0,0,0,0,0,0,0,0,0,0,0,0,0,0,0,0,0,0,0,0,0,0,0,0,0,0,0,0,0,0,0,0,0,0,0,0,0,0,0,0,0,0.2367,0.2368,0,0.24,0.24,0.24,0.2412,0.2412,0.2413,0.2413,0.2411,0.241,0.241,0,0,0,0,0,0,0,0,0,0,0,0,0,0.2294,0.2295,0.2367,0.2368,0.2369,0.24,0.24,0.24,0.2412,0.2412,0.2413,0.2413,0.2411,0.241,0.241,0,0,0,0,0,0,0,0,0,0,0,0,0,0.2321,0.2295,0.2367,0.2383,0.2385,0.24,0.24,0.24,0.2412,0.2412,0.2413,0.2413,0.2411,0.241,0.241,0.2395,0,0,0.2408,0.2408,0,0,0,0,0,0,0,0,0.232,0.2323,0.238,0.2382,0.2384,0.2407,0.2373,0.2398,0.2412,0.2396,0.2413,0.2414,0.2409,0.2409,0.2407,0.2395,0.2394,0.2408,0.2407,0.2407,0.2407,0,0,0,0,0,0,0,0.2318,0.2322,0.2375,0.2381,0.2383,0.2381,0.2385,0.2378,0.2394,0.2397,0.24,0.2411,0.2409,0.2407,0.2407,0.2394,0.2408,0.2407,0.2407,0.2407,0.2424,0.2424,0,0,0,0,0,0,0.2325,0.232,0.2374,0.2377,0.2358,0.2382,0.2387,0.2395,0.2395,0.2398,0.2411,0.2412,0.2408,0.2407,0.2407,0.2451,0.2407,0.2407,0.2406,0.2423,0.2424,0.2425,0,0,0,0,0,0,0.2323,0.2329,0.2373,0.2353,0.2359,0.2384,0.2392,0.2395,0.2399,0.2407,0.2408,0.2413,0.2408,0.2408,0.2406,0.2449,0.2406,0.2406,0.2422,0.2423,0.2424,0.25,0,0,0,0,0,0,0.232,0.2328,0.2332,0.2354,0.2361,0.2384,0.2393,0.2396,0.2408,0.2409,0.2409,0.2409,0.2409,0.2407,0.2405,0.2447,0.2405,0.2421,0.2422,0.2424,0.2497,0.2504,0.251,0,0,0,0,0,0.2318,0.2325,0.2332,0.2338,0.2367,0.2384,0.2387,0.2402,0.2407,0.2407,0.241,0.2409,0.2417,0.2406,0.2404,0.2448,0.242,0.2422,0.2424,0.2494,0.2503,0.251,0,0,0,0,0,0,0.2302,0.2328,0.2336,0.2353,0.2368,0.2388,0.2394,0.2402,0.2403,0.2407,0.2407,0.2407,0.243,0.2415,0.2404,0.2456,0.2423,0.2425,0.2477,0.2485,0.2492,0.2553,0.2405,0,0,0,0,0,0.2299,0.2308,0.2334,0.2347,0.2354,0.2372,0.238,0.2393,0.2402,0.2404,0.2404,0.2412,0.2435,0.2439,0.2445,0.2457,0.2501,0.2486,0.2493,0.2499,0.2546,0.2648,0.267,0.2431,0.2431,0.2431,0,0,0.23,0.2315,0.2322,0.2344,0.2355,0.2378,0.2377,0.2394,0.2426,0.2402,0.2429,0.2431,0.2442,0.2472,0.2481,0.2465,0.2581,0.2501,0.2507,0.2552,0.2653,0.2677,0.2698,0.2432,0.2432,0.2432,0,0,0.2307,0.2316,0.2325,0.2342,0.2366,0.2379,0.2386,0.2405,0.2425,0.2442,0.2455,0.2489,0.2481,0.2528,0.2547,0.259,0.2615,0.2575,0.2661,0.2759,0.2781,0.2801,0.286,0.2885,0.2578,0.2578,0.2578,0,0.2304,0.2332,0.233,0.235,0.2382,0.2383,0.2418,0.2433,0.2452,0.2493,0.2458,0.2532,0.2529,0.2627,0.2647,0.2615,0.2656,0.263,0.2773,0.2794,0.2813,0.287,0.2896,0.2582,0.2582,0.2581,0.2581,0,0.2321,0.2351,0.236,0.2391,0.2414,0.2444,0.2477,0.25,0.2516,0.2551,0.2631,0.2635,0.2694,0.2692,0.2685,0.2823,0.2802,0.2773,0.2763,0.2843,0.2895,0.2922,0.2588,0.2586,0.2585,0.2584,0,0,0.2302,0.2362,0.2367,0.2413,0.245,0.2481,0.2533,0.2607,0.2671,0.2688,0.2789,0.2835,0.2853,0.2878,0.2877,0.2959,0.311,0.293,0.2933,0.3008,0.3314,0.3132,0.3142,0.3109,0.3114,0.3119,0.3286,0,0.2324,0.2386,0.2408,0.2486,0.2535,0.2571,0.2626,0.2693,0.2739,0.2822,0.2881,0.2954,0.2918,0.2952,0.3038,0.3092,0.3188,0.3067,0.321,0.3215,0.306,0.3171,0.2885,0.2997,0.3312,0.3316,0.332,0,0.2338,0.2391,0.2471,0.258,0.2602,0.2642,0.2763,0.2814,0.2927,0.2966,0.3061,0.309,0.3224,0.3164,0.3351,0.3273,0.3324,0.3357,0.3363,0.32,0.3084,0.2971,0.3033,0.3364,0.336,0.3357,0.3354,0,0.2356,0.2443,0.252,0.2554,0.2655,0.2712,0.2767,0.2869,0.2932,0.3072,0.3132,0.3267,0.3335,0.3443,0.3494,0.3447,0.3682,0.3613,0.351,0.3496,0.3287,0.3244,0.3791,0.379,0.379,0.379,0.3789,0,0.2388,0.246,0.2537,0.2587,0.2684,0.2749,0.2852,0.2924,0.3031,0.3119,0.3213,0.3294,0.3415,0.3531,0.3576,0.3618,0.3754,0.3573,0.355,0.3294,0.3252,0.3593,0.3567,0.3796,0.3794,0.3793,0.3792,0,0.242,0.246,0.2561,0.2667,0.2696,0.2772,0.2872,0.2935,0.305,0.3168,0.3218,0.336,0.3479,0.3578,0.3741,0.3696,0.3768,0.3756,0.3421,0.3354,0.3498,0.3475,0.3665,0.3661,0.3657,0.3654,0.3651,0,0.2459,0.251,0.2603,0.263,0.268,0.2775,0.2816,0.2927,0.2988,0.3186,0.3237,0.3395,0.346,0.3607,0.3551,0.3597,0.3721,0.3367,0.3219,0.3539,0.3498,0.348,0.3462,0.2976,0.2968,0.2961,0.2956,0,0.2539,0.2553,0.2608,0.2648,0.269,0.2742,0.282,0.2866,0.2999,0.3095,0.3217,0.3296,0.337,0.3248,0.327,0.3249,0.332,0.3228,0.3724,0.3014,0.2892,0.2849,0.2855,0.2898,0.2904,0.2908,0.2911,0.2913,0.2578,0.2602,0.2621,0.2653,0.2678,0.2685,0.269,0.2778,0.2849,0.2929,0.305,0.3027,0.3017,0.2836,0.2795,0.2743,0.2945,0.2848,0.2868,0.2896,0.2748,0.2622,0.2551,0.2554,0.2557,0.256,0.2563,0,0.2589,0.2585,0.2618,0.2607,0.2577,0.2614,0.265,0.2622,0.2654,0.2705,0.2734,0.2401,0.2335,0.2368,0.2189,0.2185,0.2164,0.2124,0.2102,0.216,0.2212,0.203,0.1642,0.164,0.1637,0.1635,0,0,0.2589,0.2576,0.2564,0.2488,0.2466,0.2389,0.2376,0.2378,0.2372,0.2232,0.2126,0.2178,0.2252,0.1875,0.1852,0.1749,0.1937,0.1668,0.2404,0.2435,0.2484,0.2624,0.2407,0,0,0,0,0]},{"header":{"parameterUnit":"m.s-1","parameterCategory":2,"la1":30.2991,"la2":30.254,"lo1":-89.0895,"lo2":-89.0444,"dy":0.0017,"dx":0.0017,"nx":28,"ny":28,"refTime":"2024-07-07T09:00:00:Z","depth":"2","parameterNumber":3,"parameterNumberName":"V-component_of_CURRENTS"},"data":[0,0,0,0,0,0,0,0,0,0,0,0,0,0,0,0,0,0,0,0,0,0,0,0,0,0,0,0,0,0,0,0,0,0,0,0,0,0,0,0,0,0,0,0,0,0,0,0,0,0,0,0,0,0,0,0,0,0,-0.0002,-0.0003,0,-0.0071,-0.0072,-0.0073,-0.0121,-0.0121,-0.0121,-0.0121,-0.0239,-0.0242,-0.0245,0,0,0,0,0,0,0,0,0,0,0,0,0,0.0009,0.0009,-0.0002,-0.0003,-0.0004,-0.0071,-0.0072,-0.0073,-0.0121,-0.0121,-0.0121,-0.0121,-0.0238,-0.0241,-0.0245,0,0,0,0,0,0,0,0,0,0,0,0,0,-0.0023,0.001,-0.0002,-0.0034,-0.0038,-0.0071,-0.0072,-0.0073,-0.0121,-0.0121,-0.0121,-0.0122,-0.0237,-0.0241,-0.0245,-0.0266,0,0,-0.0259,-0.0261,0,0,0,0,0,0,0,0,-0.0021,-0.0023,-0.0029,-0.0032,-0.0036,-0.0086,-0.0111,-0.014,-0.012,-0.0091,-0.0121,-0.0122,-0.0191,-0.0199,-0.0213,-0.0271,-0.0276,-0.0259,-0.0262,-0.0264,-0.0265,0,0,0,0,0,0,0,-0.0018,-0.0021,-0.0031,-0.003,-0.0034,-0.0072,-0.0077,-0.0117,-0.014,-0.0093,-0.0097,-0.0102,-0.0194,-0.0209,-0.0216,-0.0278,-0.0259,-0.0263,-0.0266,-0.0267,-0.0331,-0.0331,0,0,0,0,0,0,-0.0002,-0.0018,-0.0029,-0.0033,-0.0027,-0.0072,-0.0077,-0.0071,-0.0139,-0.0149,-0.0101,-0.0104,-0.0201,-0.0211,-0.0221,-0.0211,-0.0264,-0.0268,-0.027,-0.0332,-0.0331,-0.033,0,0,0,0,0,0,-0.0001,-0.0002,-0.0026,-0.0027,-0.0032,-0.0071,-0.0065,-0.0072,-0.0086,-0.0144,-0.0155,-0.0107,-0.0202,-0.0214,-0.0253,-0.0217,-0.027,-0.0274,-0.0333,-0.0332,-0.0331,-0.0216,0,0,0,0,0,0,-0.0001,-0.0001,0.0007,-0.0025,-0.0032,-0.004,-0.0064,-0.0073,-0.0088,-0.0091,-0.0153,-0.0164,-0.0203,-0.0246,-0.0257,-0.0224,-0.0277,-0.0335,-0.0333,-0.0331,-0.0221,-0.0211,-0.0202,0,0,0,0,0,0.0,0.0012,0.0008,0.0006,-0.0018,-0.004,-0.0047,-0.0077,-0.0087,-0.0091,-0.0131,-0.0162,-0.0242,-0.0249,-0.0262,-0.023,-0.0335,-0.0333,-0.0331,-0.0225,-0.0213,-0.0202,0,0,0,0,0,0,0.0015,0.0007,0.0002,0.001,-0.0009,-0.0047,-0.0053,-0.0071,-0.0105,-0.0107,-0.0163,-0.0177,-0.0195,-0.0233,-0.0239,-0.0243,-0.0289,-0.0289,-0.0203,-0.0192,-0.0183,-0.0135,-0.0281,0,0,0,0,0,0.0026,0.0037,0.0016,0.0022,0.0016,-0.0015,-0.0028,-0.0044,-0.0077,-0.0092,-0.0133,-0.0171,-0.0196,-0.0212,-0.025,-0.0258,-0.0291,-0.0243,-0.0234,-0.0225,-0.0195,-0.0212,-0.0201,-0.0323,-0.0323,-0.0323,0,0,0.0033,0.0031,0.0035,0.0027,0.001,0.0019,-0.0024,-0.0034,-0.0018,-0.01,-0.01,-0.0148,-0.0195,-0.0201,-0.021,-0.0227,-0.0214,-0.0223,-0.0215,-0.0189,-0.0209,-0.0197,-0.0186,-0.0322,-0.0322,-0.0322,0,0,0.0058,0.0052,0.0073,0.0067,0.0055,0.0039,0.0042,0.0012,0.0006,-0.0006,-0.0049,-0.0071,-0.0126,-0.0136,-0.015,-0.0113,-0.017,-0.013,-0.0036,-0.0053,-0.0042,-0.0033,-0.0083,-0.0079,-0.0117,-0.0117,-0.0117,0,0.0068,0.0105,0.0072,0.0094,0.0111,0.0058,0.0096,0.0076,0.0039,0.0051,0.0008,-0.0034,-0.0083,-0.0059,-0.0043,-0.0086,-0.0121,-0.0073,-0.0038,-0.003,-0.0022,-0.0075,-0.0073,-0.0111,-0.0112,-0.0112,-0.0113,0,0.0113,0.0148,0.0158,0.0183,0.0185,0.0206,0.0189,0.0184,0.0167,0.0156,0.016,0.0093,0.0079,0.0058,0.0018,0.0057,0.0005,-0.003,-0.006,-0.0002,-0.0063,-0.0062,-0.0103,-0.0105,-0.0107,-0.0108,0,0,0.0149,0.0188,0.0199,0.0249,0.0249,0.0266,0.0286,0.0311,0.0341,0.0295,0.034,0.0296,0.0261,0.0244,0.019,0.0177,0.0181,0.0109,0.0105,0.0071,0.012,0.0014,0.0003,0.0151,0.0152,0.0153,0.0049,0,0.0212,0.0295,0.0293,0.0384,0.0437,0.0412,0.0442,0.0449,0.0434,0.0447,0.0403,0.0408,0.0333,0.033,0.0309,0.0217,0.0193,0.0212,0.006,0.0056,-0.0035,0.0005,0.0054,-0.004,0.0049,0.0049,0.0049,0,0.0283,0.0338,0.0443,0.0529,0.0548,0.0586,0.0646,0.0668,0.0658,0.0641,0.0633,0.0576,0.0566,0.048,0.0379,0.0392,0.028,0.0193,0.0186,0.0057,-0.0047,-0.008,-0.0043,0.0049,0.0049,0.0049,0.0049,0,0.0371,0.0459,0.0563,0.0589,0.0651,0.0703,0.0736,0.0742,0.0781,0.0777,0.0794,0.074,0.0726,0.0603,0.0431,0.0407,0.0294,0.0229,0.0023,0.0012,0.0012,-0.0001,0.0159,0.016,0.016,0.016,0.016,0,0.0468,0.0561,0.0619,0.0679,0.0799,0.0813,0.0917,0.092,0.0944,0.0998,0.0921,0.0922,0.076,0.0663,0.0486,0.0265,0.0335,0.0055,-0.0008,0.0046,0.0038,0.0086,0.0079,0.0156,0.0157,0.0158,0.0158,0,0.0576,0.0606,0.0731,0.0815,0.0849,0.0943,0.1034,0.1088,0.1106,0.1171,0.1182,0.1084,0.0933,0.0747,0.0526,0.0336,0.0131,0.003,0.0086,0.0031,-0.0163,-0.0162,-0.0219,-0.0223,-0.0226,-0.023,-0.0232,0,0.0649,0.0723,0.083,0.0883,0.0935,0.1054,0.1116,0.1164,0.1217,0.125,0.1281,0.1171,0.1067,0.0706,0.0386,0.0068,0.005,-0.0132,-0.0176,-0.0139,-0.0194,-0.0188,-0.0184,-0.014,-0.0142,-0.0143,-0.0144,0,0.0786,0.0812,0.0886,0.099,0.1077,0.1178,0.128,0.1346,0.1396,0.1423,0.1394,0.1322,0.0998,0.0666,0.026,0.0042,-0.0078,-0.0178,-0.0107,-0.0068,-0.0078,-0.0129,-0.0123,-0.0156,-0.0155,-0.0154,-0.0153,-0.0153,0.0869,0.0926,0.0989,0.1089,0.1181,0.1283,0.1368,0.1425,0.1498,0.1509,0.1446,0.1304,0.0988,0.0409,0.0117,-0.0196,-0.0218,-0.0348,-0.0338,-0.0327,-0.0315,-0.0332,-0.0457,-0.0458,-0.0458,-0.0458,-0.0459,0,0.0923,0.0983,0.1078,0.1179,0.1264,0.1317,0.1449,0.146,0.1504,0.1494,0.1424,0.1048,0.0751,0.0426,-0.0037,-0.0343,-0.0304,-0.0441,-0.03,-0.0289,-0.0279,-0.0258,-0.0389,-0.0389,-0.0389,-0.039,0,0,0.095,0.1016,0.1046,0.12,0.1292,0.1421,0.1491,0.1442,0.1435,0.1322,0.1233,0.1123,0.0777,0.0431,0.0087,-0.0132,-0.0148,-0.0189,-0.0221,-0.0002,0.0012,-0.0211,-0.0166,0,0,0,0,0]}],[{"header":{"parameterUnit":"m.s-1","parameterCategory":2,"la1":30.2991,"la2":30.254,"lo1":-89.0895,"lo2":-89.0444,"dy":0.0017,"dx":0.0017,"nx":28,"ny":28,"refTime":"2024-07-07T09:00:00:Z","depth":"4","parameterNumber":2,"parameterNumberName":"U-component_of_CURRENTS"},"data":[0,0,0,0,0,0,0,0,0,0,0,0,0,0,0,0,0,0,0,0,0,0,0,0,0,0,0,0,0,0,0,0,0,0,0,0,0,0,0,0,0,0,0,0,0,0,0,0,0,0,0,0,0,0,0,0,0,0,0.1123,0.1123,0,0.1162,0.1162,0.1163,0.124,0.1241,0.1243,0.1244,0.1371,0.1374,0.1376,0,0,0,0,0,0,0,0,0,0,0,0,0,0.1092,0.1092,0.1123,0.1123,0.1124,0.1162,0.1162,0.1163,0.124,0.1242,0.1243,0.1244,0.1371,0.1373,0.1376,0,0,0,0,0,0,0,0,0,0,0,0,0,0.1118,0.1092,0.1123,0.1164,0.1168,0.1161,0.1162,0.1163,0.124,0.1242,0.1243,0.1245,0.137,0.1373,0.1376,0.136,0,0,0.1387,0.1388,0,0,0,0,0,0,0,0,0.1117,0.112,0.1158,0.1161,0.1166,0.1195,0.1198,0.1232,0.1239,0.1216,0.1244,0.1246,0.1317,0.1325,0.1331,0.1366,0.1371,0.1387,0.1389,0.139,0.1391,0,0,0,0,0,0,0,0.1115,0.1118,0.1142,0.1158,0.1163,0.1172,0.1178,0.1205,0.126,0.1218,0.1223,0.1222,0.1321,0.1328,0.1335,0.1373,0.1387,0.139,0.1392,0.1393,0.1529,0.1531,0,0,0,0,0,0,0.1103,0.1116,0.114,0.1142,0.1142,0.1171,0.1178,0.1186,0.1258,0.1269,0.122,0.1225,0.1321,0.1331,0.134,0.1456,0.139,0.1394,0.1395,0.1527,0.1529,0.1531,0,0,0,0,0,0,0.1102,0.1105,0.1139,0.1127,0.1132,0.1169,0.1178,0.1186,0.1238,0.1258,0.1272,0.1268,0.1323,0.1335,0.14,0.1457,0.1395,0.1398,0.1526,0.1528,0.153,0.1603,0,0,0,0,0,0,0.1101,0.1105,0.1122,0.1127,0.1132,0.1168,0.1176,0.1185,0.123,0.1239,0.1303,0.1314,0.1326,0.1395,0.1403,0.146,0.1401,0.1524,0.1527,0.1529,0.1599,0.1608,0.1616,0,0,0,0,0,0.11,0.1111,0.1123,0.1126,0.115,0.1168,0.1174,0.1207,0.1231,0.1261,0.1302,0.1314,0.142,0.1398,0.1408,0.1467,0.1522,0.1526,0.1529,0.1595,0.1606,0.1616,0,0,0,0,0,0,0.1108,0.112,0.1133,0.1149,0.1172,0.1181,0.1207,0.1228,0.1282,0.1299,0.1329,0.1343,0.1427,0.1427,0.1402,0.1513,0.1475,0.1481,0.1522,0.1533,0.1541,0.157,0.1404,0,0,0,0,0,0.1113,0.1128,0.1143,0.1159,0.1175,0.1199,0.1217,0.1237,0.127,0.1298,0.1352,0.1397,0.1438,0.1471,0.1508,0.156,0.1553,0.1605,0.1613,0.162,0.165,0.1668,0.1681,0.1543,0.1543,0.1543,0,0,0.1115,0.1126,0.1134,0.1162,0.1184,0.1217,0.1218,0.1251,0.1293,0.1301,0.1403,0.1437,0.146,0.1528,0.1565,0.1543,0.1652,0.1625,0.1631,0.1657,0.1674,0.1687,0.1699,0.1545,0.1545,0.1544,0,0,0.1124,0.1147,0.1166,0.119,0.1222,0.1242,0.1264,0.1308,0.1352,0.1416,0.1447,0.1515,0.1578,0.1617,0.1635,0.1708,0.1699,0.1725,0.1793,0.181,0.1822,0.1832,0.1821,0.183,0.1725,0.1725,0.1725,0,0.1131,0.1156,0.1176,0.1205,0.1233,0.1265,0.1303,0.1341,0.141,0.1452,0.1462,0.159,0.1619,0.1701,0.1739,0.1732,0.1729,0.1752,0.1822,0.1832,0.1841,0.1827,0.1836,0.1729,0.1729,0.1728,0.1728,0,0.1155,0.1183,0.1199,0.1253,0.1292,0.1323,0.1375,0.144,0.1495,0.1532,0.1643,0.1686,0.1762,0.1786,0.1791,0.1887,0.1858,0.1832,0.1796,0.186,0.184,0.1848,0.1735,0.1734,0.1732,0.1731,0,0,0.1149,0.1204,0.1217,0.123,0.132,0.1334,0.1436,0.1515,0.1572,0.1659,0.1742,0.184,0.1878,0.1903,0.193,0.1965,0.2025,0.1944,0.1943,0.1933,0.2053,0.1918,0.1913,0.2013,0.2016,0.2017,0.2005,0,0.1168,0.1209,0.1257,0.1306,0.1327,0.1403,0.1494,0.1571,0.1643,0.1732,0.1801,0.1888,0.1913,0.1962,0.2007,0.2025,0.2054,0.203,0.1994,0.1993,0.1866,0.1921,0.2025,0.2011,0.2013,0.2014,0.2015,0,0.1179,0.1203,0.1262,0.1313,0.1338,0.1395,0.1522,0.1602,0.1736,0.1799,0.1906,0.1951,0.2059,0.2047,0.2125,0.2111,0.2107,0.2106,0.2104,0.1967,0.1874,0.1939,0.2028,0.2027,0.2026,0.2025,0.2025,0,0.1127,0.1192,0.1235,0.1257,0.1351,0.1411,0.1489,0.1632,0.1698,0.1855,0.1896,0.2027,0.2092,0.2124,0.2143,0.2143,0.2185,0.2159,0.2032,0.202,0.2111,0.2101,0.2208,0.2208,0.2208,0.2208,0.2208,0,0.1102,0.111,0.121,0.1216,0.1271,0.1381,0.1469,0.1569,0.1723,0.1795,0.1928,0.1981,0.2122,0.2151,0.2154,0.2111,0.2185,0.2064,0.202,0.2138,0.2131,0.2115,0.2104,0.2207,0.2208,0.2208,0.2208,0,0.0996,0.1077,0.108,0.1189,0.1233,0.1269,0.1414,0.1477,0.1649,0.1746,0.18,0.1968,0.2035,0.21,0.216,0.2106,0.2078,0.2039,0.2154,0.2113,0.19,0.1894,0.1903,0.1899,0.1895,0.1891,0.1889,0,0.0925,0.0936,0.1023,0.1032,0.1074,0.1161,0.1239,0.1429,0.1496,0.1703,0.1725,0.1864,0.1952,0.1908,0.201,0.2,0.1985,0.195,0.1959,0.1919,0.1876,0.1875,0.1874,0.1883,0.1882,0.188,0.1879,0,0.076,0.0816,0.0838,0.0888,0.0943,0.0999,0.1114,0.1143,0.1384,0.1522,0.1621,0.1686,0.1761,0.1836,0.1853,0.1837,0.1964,0.191,0.1918,0.1926,0.1894,0.1855,0.1858,0.1866,0.1868,0.1869,0.187,0,0.0627,0.0615,0.0685,0.0715,0.0793,0.0846,0.0906,0.1018,0.113,0.1383,0.1409,0.1565,0.1741,0.1748,0.174,0.1743,0.1734,0.1678,0.1699,0.1715,0.1665,0.1596,0.1454,0,0,0,0,0,0.0504,0.0506,0.0502,0.0557,0.0642,0.0711,0.0846,0.0933,0.1145,0.1174,0.1305,0.1375,0.1463,0.1537,0.1506,0.1642,0.1716,0.1597,0.1654,0.1791,0.1807,0.1769,0,0,0,0,0,0,0.0429,0.0429,0.0452,0.0452,0.0483,0.0586,0.0681,0.081,0.0843,0.1051,0.1098,0.1276,0.1363,0.1465,0.1475,0.1498,0.1501,0.1707,0.1703,0.1783,0.1797,0.1809,0.1776,0,0,0,0,0]},{"header":{"parameterUnit":"m.s-1","parameterCategory":2,"la1":30.2991,"la2":30.254,"lo1":-89.0895,"lo2":-89.0444,"dy":0.0017,"dx":0.0017,"nx":28,"ny":28,"refTime":"2024-07-07T09:00:00:Z","depth":"4","parameterNumber":3,"parameterNumberName":"V-component_of_CURRENTS"},"data":[0,0,0,0,0,0,0,0,0,0,0,0,0,0,0,0,0,0,0,0,0,0,0,0,0,0,0,0,0,0,0,0,0,0,0,0,0,0,0,0,0,0,0,0,0,0,0,0,0,0,0,0,0,0,0,0,0,0,0.0044,0.0044,0,0.0017,0.0017,0.0016,-0.0003,-0.0003,-0.0003,-0.0003,-0.0102,-0.0105,-0.0107,0,0,0,0,0,0,0,0,0,0,0,0,0,0.0016,0.0017,0.0044,0.0044,0.0044,0.0017,0.0017,0.0016,-0.0003,-0.0003,-0.0003,-0.0003,-0.0101,-0.0104,-0.0108,0,0,0,0,0,0,0,0,0,0,0,0,0,0.0011,0.0017,0.0044,0.0032,0.0031,0.0017,0.0017,0.0016,-0.0003,-0.0003,-0.0003,-0.0003,-0.01,-0.0104,-0.0108,-0.0133,0,0,-0.012,-0.0122,0,0,0,0,0,0,0,0,0.0012,0.0012,0.0034,0.0033,0.0032,0.0012,-0.0029,-0.0037,-0.0003,0.0008,-0.0003,-0.0003,-0.0069,-0.0076,-0.0083,-0.0138,-0.0142,-0.0121,-0.0123,-0.0125,-0.0126,0,0,0,0,0,0,0,0.0012,0.0013,0.0031,0.0034,0.0033,0.0007,0.0007,-0.0031,-0.0033,0.0007,0.0006,0.0006,-0.0071,-0.0079,-0.0085,-0.0144,-0.012,-0.0124,-0.0126,-0.0128,-0.023,-0.023,0,0,0,0,0,0,0.0023,0.0013,0.0032,0.0031,0.0024,0.0008,0.0008,0.0017,-0.0031,-0.0038,0.0006,0.0005,-0.0072,-0.0081,-0.0089,-0.0131,-0.0125,-0.0128,-0.0131,-0.023,-0.023,-0.023,0,0,0,0,0,0,0.0022,0.0025,0.0033,0.0022,0.0022,0.0009,0.0019,0.0016,0.0008,-0.0031,-0.0039,0.0001,-0.0072,-0.0083,-0.012,-0.0134,-0.013,-0.0134,-0.0229,-0.023,-0.023,-0.0208,0,0,0,0,0,0,0.0022,0.0025,0.0032,0.0023,0.0023,0.0029,0.0019,0.0016,0.0009,0.0007,-0.0038,-0.0047,-0.0073,-0.0113,-0.0124,-0.014,-0.0137,-0.0229,-0.0229,-0.023,-0.0209,-0.0208,-0.0208,0,0,0,0,0,0.0021,0.0034,0.0032,0.0034,0.0034,0.0029,0.0027,0.0016,0.0009,0.0007,-0.0023,-0.0046,-0.0124,-0.0117,-0.0129,-0.0146,-0.0229,-0.0229,-0.023,-0.0209,-0.0208,-0.0208,0,0,0,0,0,0,0.0024,0.0033,0.0031,0.0046,0.0039,0.0027,0.0025,0.0016,-0.0009,-0.0012,-0.0051,-0.0062,-0.0101,-0.0124,-0.0115,-0.0176,-0.018,-0.0183,-0.016,-0.016,-0.0159,-0.0167,-0.014,0,0,0,0,0,0.0029,0.0043,0.004,0.0051,0.005,0.0036,0.0031,0.0025,0.0005,-0.0005,-0.0038,-0.0075,-0.0113,-0.0135,-0.0169,-0.0204,-0.023,-0.0223,-0.0222,-0.0221,-0.0235,-0.0275,-0.0279,-0.0233,-0.0233,-0.0233,0,0,0.0031,0.004,0.0046,0.0052,0.0046,0.0036,0.0033,0.0031,0.0013,-0.0014,-0.0051,-0.0076,-0.0121,-0.0158,-0.0178,-0.018,-0.0246,-0.0222,-0.0221,-0.0236,-0.0276,-0.0281,-0.0285,-0.0233,-0.0233,-0.0233,0,0,0.0035,0.0052,0.0056,0.005,0.0047,0.0042,0.0042,0.0027,0.0013,-0.0016,-0.0044,-0.0077,-0.013,-0.0166,-0.0192,-0.0211,-0.024,-0.0218,-0.0226,-0.0263,-0.0267,-0.0271,-0.0297,-0.0304,-0.0218,-0.0218,-0.0218,0,0.0033,0.0036,0.0054,0.0046,0.0037,0.0043,0.0028,0.0018,-0.001,-0.0029,-0.0025,-0.0102,-0.0139,-0.0192,-0.0201,-0.0212,-0.0231,-0.0223,-0.0262,-0.0267,-0.0272,-0.0298,-0.0305,-0.0217,-0.0217,-0.0217,-0.0218,0,0.0026,0.0024,0.0025,0.002,0.0019,0.0009,0.0001,-0.0003,-0.0013,-0.0038,-0.008,-0.0115,-0.0158,-0.0175,-0.02,-0.0251,-0.0253,-0.0255,-0.0263,-0.0275,-0.0301,-0.031,-0.0216,-0.0216,-0.0216,-0.0217,0,0,0.0022,0.0019,0.0015,0.0007,-0.0001,0.0002,-0.0014,-0.0036,-0.0041,-0.0073,-0.0094,-0.0164,-0.017,-0.02,-0.0222,-0.0262,-0.031,-0.0274,-0.0276,-0.0297,-0.0386,-0.0342,-0.0347,-0.0315,-0.0317,-0.0318,-0.0386,0,-0.0001,-0.0016,-0.0013,-0.0032,-0.0043,-0.0037,-0.0043,-0.0055,-0.0068,-0.008,-0.0122,-0.0149,-0.0182,-0.0184,-0.0235,-0.0283,-0.0334,-0.0292,-0.0374,-0.0376,-0.0335,-0.0356,-0.0323,-0.0392,-0.0394,-0.0396,-0.0397,0,-0.0033,-0.003,-0.0054,-0.005,-0.0051,-0.0058,-0.0051,-0.0053,-0.007,-0.0074,-0.0107,-0.0129,-0.0188,-0.02,-0.031,-0.0277,-0.0344,-0.0386,-0.0389,-0.0367,-0.0349,-0.0382,-0.0412,-0.0411,-0.041,-0.0409,-0.0408,0,-0.0056,-0.0067,-0.0083,-0.0089,-0.0076,-0.0078,-0.0064,-0.0065,-0.0046,-0.0067,-0.0053,-0.0125,-0.0129,-0.0229,-0.0313,-0.0316,-0.0422,-0.0432,-0.0464,-0.0461,-0.0488,-0.0484,-0.0536,-0.0536,-0.0535,-0.0535,-0.0535,0,-0.0094,-0.0111,-0.0092,-0.01,-0.0079,-0.0078,-0.0054,-0.0043,-0.0021,0.0012,-0.0047,-0.0029,-0.0138,-0.02,-0.0304,-0.0394,-0.0417,-0.0477,-0.0481,-0.0475,-0.0468,-0.0494,-0.0488,-0.0538,-0.0537,-0.0537,-0.0536,0,-0.0126,-0.0133,-0.0127,-0.0102,-0.0093,-0.0068,-0.0012,0.0025,0.0025,0.0074,0.0075,0.0042,-0.0031,-0.0146,-0.0283,-0.0356,-0.0464,-0.05,-0.0473,-0.0472,-0.0486,-0.0478,-0.0548,-0.0547,-0.0547,-0.0546,-0.0545,0,-0.0144,-0.0147,-0.0101,-0.0053,-0.0043,-0.0004,0.0046,0.0056,0.0106,0.0125,0.0162,0.0103,0.0064,-0.0082,-0.0224,-0.0411,-0.0444,-0.0503,-0.0523,-0.0493,-0.049,-0.0484,-0.0477,-0.0544,-0.0544,-0.0544,-0.0544,0,-0.0131,-0.0113,-0.0075,0.0016,0.0065,0.0117,0.0174,0.0207,0.0238,0.0226,0.0256,0.0172,0.0097,-0.004,-0.0175,-0.032,-0.0462,-0.0496,-0.05,-0.052,-0.0489,-0.0486,-0.048,-0.0541,-0.0542,-0.0542,-0.0542,0,-0.0077,-0.0038,0.0039,0.0114,0.0182,0.0237,0.0241,0.0301,0.0328,0.0337,0.0347,0.024,0.0183,0.0007,-0.0124,-0.0247,-0.0297,-0.0349,-0.0361,-0.0366,-0.0294,-0.0227,-0.0211,0,0,0,0,0,0.0008,0.0067,0.0147,0.0225,0.0286,0.0303,0.0353,0.0353,0.0349,0.0394,0.0375,0.0305,0.0133,0.0054,-0.006,-0.0142,-0.0339,-0.0284,-0.041,-0.0528,-0.0531,-0.0474,0,0,0,0,0,0,0.0068,0.0162,0.0174,0.0301,0.0355,0.0405,0.0418,0.0405,0.0428,0.0417,0.0336,0.0279,0.0113,0.0209,-0.0058,-0.01,-0.0195,-0.0373,-0.0375,-0.0526,-0.0529,-0.0531,-0.0474,0,0,0,0,0]}]]